Regional Weather Roundup
Issued by NWS Midland/Odessa, TX

Skip options and go directly to product.
Home | Oldest Version | Next Version | Current Version | All | Text Only | Save Text | Print | Product List | Glossary On

Skip product version selection by date and time.   
949
ASUS44 KMAF 010402
RWRMAF
MIDLAND AREA WEATHER ROUNDUP
NATIONAL WEATHER SERVICE MIDLAND TX
1100 PM CDT THU JUL 31 2014

...IN SOUTHWEST TEXAS AND SOUTHEAST NEW MEXICO...

CITY           SKY/WX    TMP DP  RH WIND       PRES   REMARKS
ALPINE         CLEAR     73  60  64 NE6       30.26R
ANDREWS        FAIR      75  58  54 SE3       30.14R
ARTESIA        MOCLDY    73  63  68 CALM      30.16S
BIG SPRING     CLEAR     79  60  52 E10       30.14S
CARLSBAD       CLOUDY    75  66  73 W3        30.13R
DRYDEN           N/A     88  63  43 N8        30.02R
FORT STOCKTON  PTCLDY    79  60  52 NE6       30.11R
GUAD PASS      MOCLDY    66  58  75 NE28      30.25R
HOBBS          PTCLDY    75  54  46 E6        30.18R
MARFA          CLEAR     70  59  68 N10       30.24R
MIDLAND AIRPK  PTCLDY    78  59  51 E8        30.13R
MIDLAND INTL   PTCLDY    78  59  51 E14       30.12R
ODESSA         PTCLDY    79  57  46 SE10      30.13R
PECOS          MOCLDY    81  61  50 E3        30.09R
PRESIDIO       FAIR      87  60  40 NE12G17   30.03R
SEMINOLE       PTCLDY    76  54  46 E7        30.17R
SNYDER         CLEAR     73  61  66 E8        30.14R
WINK           MOCLDY    80  58  46 SE7       30.09R
$$
...OTHER STATIONS IN TEXAS...

CITY           SKY/WX    TMP DP  RH WIND       PRES   REMARKS
ABILENE        CLOUDY    76  63  64 NE5       30.10R
AMARILLO       CLOUDY    69  55  60 E3        30.21R
AUSTIN         PTCLDY    82  67  60 NE14      29.99R
BROWNSVILLE    PTCLDY    82  76  81 SE9       29.93R
CORPUS CHRISTI MOCLDY    82  76  81 S15       29.93R
DALLAS FTW     CLOUDY    71  65  81 NE14      30.02R
DEL RIO        CLOUDY    84  71  65 NE8       29.93R
EL PASO        MOCLDY    79  58  48 E9        30.10R
HOUSTON INT    TSTM      78  76  93 S10G28    29.94R FOG
LUBBOCK        PTCLDY    69  52  54 NE8       30.18R
SAN ANGELO     CLEAR     76  62  62 NE9       30.08R
SAN ANTONIO    MOCLDY    88  68  51 NE14      29.98R
WACO           MOCLDY    75  65  70 N13       30.01R
WICHITA FALLS  NOT AVBL
$$
...OTHER LOCATIONS IN NEW MEXICO...

CITY           SKY/WX    TMP DP  RH WIND       PRES   REMARKS
ALAMAGORDO     MOCLDY    81  59  47 S8        30.12R
ALBUQUERQUE    CLOUDY    65  54  67 E20       30.26R
CANNON AFB     CLOUDY    69  54  58 E9        30.24R
CLOVIS         NOT AVBL
HOLLOMAN AFB   MOCLDY    79  61  53 S10       30.11R
ROSWELL        MOCLDY    73  64  73 S5        30.17R
RUIDOSO        CLOUDY    63  59  88 SE8       30.38R
SANTA FE       CLOUDY    59  56  89 W9        30.31R
TRUTH OR CONSE LGT RAIN  72  59  63 N10G21    30.20R
TUCUMCARI      CLOUDY    74  52  46 NE7       30.22R
$$

USA.gov is the U.S. government's official web portal to all federal, state and local government web resources and services.